Regional Weather Roundup
Issued by NWS

Home | Current Version | Previous Version | Text Only | Print | Product List | Glossary Off
Versions: 1 2 3 4 5 6 7 8 9 10 11 12 13 14 15 16 17 18 19 20 21 22 23 24 25 26 27 28 29 30 31 32 33 34 35 36 37 38 39 40 41 42 43 44 45 46 47 48 49 50

000
ASUS43 KFSD 190910
RWRSD

WEATHER ROUNDUP FOR SOUTH DAKOTA
NATIONAL WEATHER SERVICE SIOUX FALLS SD
400 AM CDT TUE SEP 19 2017

NOTE: "FAIR" INDICATES FEW OR NO CLOUDS BELOW 12,000 FEET WITH NO
SIGNIFICANT WEATHER AND/OR OBSTRUCTIONS TO VISIBILITY.


SDZ001>005-009-010-012>017-191000-
NORTHWEST AND NORTH CENTRAL SOUTH DAKOTA

CITY           SKY/WX    TMP DP  RH WIND       PRES   REMARKS
BUFFALO          N/A     62  45  53 E8        29.45F
FAITH            N/A     63  48  58 SE15      29.58
MOBRIDGE       PTCLDY    61  57  87 E13       29.62F
$$

SDZ012>016-024>037-041>051-057-063-072>074-191000-
SOUTHWEST AND SOUTH CENTRAL SOUTH DAKOTA

CITY           SKY/WX    TMP DP  RH WIND       PRES   REMARKS
RAPID CTY ARPT NOT AVBL
PIERRE         PTCLDY    61  58  90 SE13      29.64F
CUSTER         CLOUDY    60  36  40 S12G20    29.74F
ELLSWORTH AFB  CLOUDY    63  42  46 S17       29.59F
PHILIP         CLEAR     65  51  60 CALM      29.61F
PINE RIDGE     CLEAR     67  52  58 S23G31    29.67F
SPEARFISH      FAIR      68  36  30 SE12      29.60S
WINNER         FAIR      66  60  81 S15       29.69F
$$

SDZ004>011-016>023-039-040-191000-
NORTHEAST SOUTH DAKOTA

CITY           SKY/WX    TMP DP  RH WIND       PRES   REMARKS
ABERDEEN       PTCLDY    62  62 100 SE10      29.73F
WATERTOWN      CLOUDY    64  64 100 S10       29.79F
BROOKINGS      CLOUDY    65  64  97 S12       29.82F
SISSETON         N/A     63  63 100 SE9       29.78F
$$

SDZ017-020-022-023-036>040-048>070-191000-
SOUTHEAST SOUTH DAKOTA

CITY           SKY/WX    TMP DP  RH WIND       PRES   REMARKS
SIOUX FALLS    CLOUDY    67  66  97 S10       29.82F FOG
HURON          CLOUDY    65  65 100 S16G23    29.74F
CHAMBERLAIN    PTCLDY    61  61 100 E10       29.70F
MITCHELL       CLOUDY    67  65  93 S15       29.76F
YANKTON        CLOUDY    66  65  96 SE10      29.79F
$$

ABBREVIATIONS USED IN REMARKS
   TC - TEMPERATURE IN CELSIUS
  WCI - WIND CHILL INDEX
   HX - HEAT INDEX
  VSB - VISIBILITY





USA.gov is the U.S. government's official web portal to all federal, state and local government web resources and services.